STARLINK-32365, 61625

Orbit data source: Space-Track

STARLINK-32365, 61625 is a payload satellite owned by SpaceX/Seattle (US) in LEO that was launched on Wed, 23 Oct 2024 UTC via an FALCON 9 launch vehicle from the Air Force Eastern Test Range (AFETR). Payload-class satellites include a variety of spacecraft equipped with specific instruments for various scientific and technological missions. These include communications satellites like Starlink; space stations such as the ISS; scientific satellites like the Hubble; Earth observation satellites from companies like Planet Labs, Umbra, and HawkEye 360; GPS; miniature CubeSats for education and research; and military/defense satellites.

Loading next visibility...
Identifier
61625, 2024-191E
Orbit
LEO
Country
Flag of USUS
Related business
Manufacturer
SpaceX/Seattle
Mission
Operational Commercial Communications
Bus & Motor
STARLINK V2M, Unknown motor
Mass
730 kg wet, ~700 kg dry
Launch date (UTC)
2024-10-23 (11 months ago)
Launch vehicle
FALCON 9
Launch site
Air Force Eastern Test Range (AFETR)
Object type
Payload
Rocket body
Debris
Shape & HBR
Box + 2 Pan, 14.5 m
Radar Cross Section
36.964 m², Large (>1 m²)

Expand to show TLE details & history
Last TLE update: 14 hours ago

TLE from 14 hours ago
0 STARLINK-32365
1 61625U 24191E   25259.13802968 -.00000058  00000-0  74027-5 0  9996
2 61625  43.0015  60.0476 0001193 276.8959  83.1757 15.27578455 50845
Epoch: 2025-09-16T03:18Z
TLE epoch observation values (Epoch: 2025-09-16T03:18:45.764Z)
Latitude
-0.00001°
Longitude
15.02427°
Altitude
482.732 km
Speed
7.626 km/s
True Right ascension
04h 00m 11s
True Declination
0° 00' 00"
Sunlit
Object was in full shadow at epoch
Visualization orbit readout
Latitude
Unknown
Longitude
Unknown
Altitude
Unknown
Speed
Unknown
Apparent Right ascension
Unknown
Apparent Declination
Unknown
Sunlit
N/A
Visualization observer readout
Local Sidereal Time
09:53:47
Azimuth
Unknown
Elevation
Unknown
Doppler factor
Unknown
Orbital elements
Apogee altitude
485.817 km
Perigee altitude
484.18 km
Semi-major axis
6,863.136 km
Eccentricity
0.00012
Inclination
43.0015°
RAAN
60.0476°
Arg. of periapsis
276.8959°
True anomaly
83.18927°
Mean anomaly
83.1757°
Eccentric anomaly
83.18249°
Mean motion
3.81733 °/min
Orbital period
94.31 mins
BSTAR
0.0000074027
Loading maneuver chart data...
Computing Atmospheric mass density...
Loading historical data...
Loading historical data...
Loading historical data...
Loading historical data...
Loading historical data...
Loading historical data...
Loading historical data...

Documentation

Showing up to 5 results
|